WD6AWP Weather Reports


Display with metric or nautical units.
time (UTC)temp
F
wind
direction
speed
MPH
gust
MPH
rain 1hr
in
rain 24hr
in
rain mn
in
humidity
%
barometer
mb
20260507013044 65 274 10.0 19.0 0.00 0.00 0.00 82 1015.7
20260507011526 66 286 8.0 18.0 0.00 0.00 0.00 82 1015.6
20260507010034 66 270 13.0 20.0 0.00 0.00 0.00 81 1015.6
20260507004525 66 277 13.0 23.0 0.00 0.00 0.00 80 1015.5
20260507003025 67 276 10.0 21.0 0.00 0.00 0.00 79 1015.6
20260507001529 68 259 11.0 20.0 0.00 0.00 0.00 78 1015.5
20260507000023 68 277 9.0 22.0 0.00 0.00 0.00 77 1015.5
20260506234529 68 265 12.0 19.0 0.00 0.00 0.00 76 1015.4
20260506233022 68 261 12.0 20.0 0.00 0.00 0.00 76 1015.5
20260506231519 69 281 14.0 19.0 0.00 0.00 0.00 74 1015.6
20260506230021 70 281 7.0 15.0 0.00 0.00 0.00 75 1015.8
20260506224517 70 304 10.0 17.0 0.00 0.00 0.00 74 1016.0
20260506223013 69 298 8.0 16.0 0.00 0.00 0.00 74 1016.2
20260506221511 70 269 10.0 17.0 0.00 0.00 0.00 72 1016.3
20260506220020 71 255 6.0 14.0 0.00 0.00 0.00 69 1016.6
20260506214509 72 257 7.0 17.0 0.00 0.00 0.00 65 1016.7
20260506213006 72 241 5.0 11.0 0.00 0.00 0.00 66 1016.8
20260506211502 72 225 6.0 14.0 0.00 0.00 0.00 63 1016.9
20260506210007 72 236 5.0 11.0 0.00 0.00 0.00 64 1017.1
20260506204601 71 234 6.0 11.0 0.00 0.00 0.00 64 1017.2
20260506203057 71 245 5.0 11.0 0.00 0.00 0.00 68 1017.3
20260506201554 70 223 6.0 12.0 0.00 0.00 0.00 71 1017.5
20260506200053 69 206 6.0 13.0 0.00 0.00 0.00 73 1017.6
20260506194554 70 219 6.0 12.0 0.00 0.00 0.00 73 1017.8
20260506193052 69 196 6.0 11.0 0.00 0.00 0.00 73 1017.9
20260506191551 70 226 6.0 10.0 0.00 0.00 0.00 72 1018.0
20260506190050 69 219 3.0 10.0 0.00 0.00 0.00 73 1018.2
20260506184549 69 165 5.0 11.0 0.00 0.00 0.00 74 1018.3
20260506183048 69 248 5.0 10.0 0.00 0.00 0.00 72 1018.5
20260506181546 69 225 5.0 10.0 0.00 0.00 0.00 73 1018.5
20260506180047 69 227 4.0 10.0 0.00 0.00 0.00 73 1018.5
20260506174547 69 164 4.0 10.0 0.00 0.00 0.00 73 1018.4
20260506173053 68 201 4.0 11.0 0.00 0.00 0.00 72 1018.4
20260506171551 68 175 4.0 12.0 0.00 0.00 0.00 73 1018.3
20260506170043 69 206 4.0 9.0 0.00 0.00 0.00 71 1018.4
20260506164553 69 209 3.0 8.0 0.00 0.00 0.00 71 1018.3
20260506163043 69 217 2.0 8.0 0.00 0.00 0.00 71 1018.2
20260506161540 69 225 2.0 9.0 0.00 0.00 0.00 71 1018.2
20260506160046 68 146 0.0 0.0 0.00 0.00 0.00 70 1018.3
20260506154543 68 137 0.0 0.0 0.00 0.00 0.00 71 1018.4
20260506153035 67 83 0.0 0.0 0.00 0.00 0.00 72 1018.4
20260506151531 66 78 0.0 4.0 0.00 0.00 0.00 73 1018.4
20260506150026 65 83 0.0 0.0 0.00 0.00 0.00 75 1018.4
20260506144527 63 84 0.0 0.0 0.00 0.00 0.00 77 1018.4
20260506143022 60 82 0.0 0.0 0.00 0.00 0.00 82 1018.3
20260506141515 56 84 0.0 0.0 0.00 0.00 0.00 90 1018.2
20260506140015 54 93 0.0 0.0 0.00 0.00 0.00 91 1018.1
20260506134513 53 117 0.0 0.0 0.00 0.00 0.00 92 1018.1
20260506133014 53 136 0.0 0.0 0.00 0.00 0.00 91 1017.9
20260506131516 53 136 0.0 0.0 0.00 0.00 0.00 91 1017.8
20260506130014 53 136 0.0 0.0 0.00 0.00 0.00 91 1017.6
20260506124506 54 136 0.0 0.0 0.00 0.00 0.00 91 1017.5
20260506123006 54 136 0.0 0.0 0.00 0.00 0.00 91 1017.4
20260506121504 54 136 0.0 0.0 0.00 0.00 0.00 90 1017.2
20260506120003 55 136 0.0 0.0 0.00 0.00 0.00 90 1017.2
20260506114503 55 136 0.0 0.0 0.00 0.00 0.00 90 1017.2
20260506113002 55 136 0.0 0.0 0.00 0.00 0.00 91 1017.1
20260506111559 55 137 0.0 0.0 0.00 0.00 0.00 91 1017.1
20260506110101 56 137 0.0 0.0 0.00 0.00 0.00 90 1017.1
20260506104557 56 137 0.0 0.0 0.00 0.00 0.00 91 1017.2
20260506103056 56 137 0.0 0.0 0.00 0.00 0.00 90 1017.2
20260506101554 57 137 0.0 0.0 0.00 0.00 0.00 90 1017.1
20260506100054 57 137 0.0 0.0 0.00 0.00 0.00 89 1017.0
20260506094550 57 233 0.0 0.0 0.00 0.03 0.00 89 1017.1
20260506093052 57 233 0.0 0.0 0.00 0.03 0.00 88 1017.2
20260506091547 58 223 0.0 0.0 0.00 0.03 0.00 88 1017.2
20260506090046 58 223 0.0 0.0 0.00 0.03 0.00 88 1017.3
20260506084545 58 219 0.0 0.0 0.00 0.03 0.00 88 1017.4
20260506083045 59 213 0.0 0.0 0.00 0.03 0.00 89 1017.5
20260506081548 59 213 0.0 0.0 0.00 0.03 0.00 89 1017.5
20260506073040 59 269 0.0 3.0 0.00 0.03 0.00 88 1017.5
20260506071548 59 269 0.0 3.0 0.00 0.03 0.00 88 1017.5
20260506061535 60 259 0.0 6.0 0.00 0.03 0.03 87 1017.1
20260506044530 61 261 3.0 9.0 0.00 0.03 0.03 84 1016.3
20260506043023 61 244 5.0 9.0 0.00 0.03 0.03 84 1016.2
20260506041524 61 284 2.0 10.0 0.00 0.03 0.03 84 1016.2
20260506040020 61 240 6.0 11.0 0.00 0.03 0.03 83 1015.9
20260506034519 61 286 7.0 12.0 0.00 0.03 0.03 82 1015.6
20260506033018 62 281 5.0 11.0 0.00 0.03 0.03 82 1015.5
20260506031518 62 278 4.0 12.0 0.00 0.03 0.03 81 1015.3
20260506030020 62 289 9.0 15.0 0.00 0.03 0.03 81 1015.1
20260506024521 62 275 8.0 16.0 0.00 0.03 0.03 80 1014.8
20260506023016 62 265 9.0 15.0 0.00 0.03 0.03 80 1014.6
20260506021515 63 252 7.0 16.0 0.00 0.03 0.03 79 1014.4
20260506020014 63 277 7.0 15.0 0.00 0.03 0.03 78 1014.5
20260506014514 63 290 9.0 15.0 0.00 0.03 0.03 77 1014.3